Location: Auckland
(36.8500°S, 174.7800°E)
Time: 22:23:27
(UTC+13:00)

ISS - Visible Passes

Search period start: 19 February 2019 00:00
Search period end: 01 March 2019 00:00
Orbit: 403 x 411 km, 51.6° (Epoch: 19 February)

Date Brightness Start Highest point End Pass type
(mag) Time Alt. Az. Time Alt. Az. Time Alt. Az.
19 Feb -3.4 21:05:59 10° NW 21:09:19 69° SW 21:12:42 10° SE visible
19 Feb -0.6 22:44:44 10° SW 22:46:23 13° SSW 22:47:52 11° S visible
20 Feb -0.9 21:52:12 10° WSW 21:54:40 18° SSW 21:57:08 10° SSE visible
21 Feb -1.7 21:00:01 10° W 21:03:00 28° SSW 21:06:00 10° SSE visible
22 Feb -0.6 21:47:28 10° SW 21:48:36 11° SSW 21:49:44 10° S visible
23 Feb -0.9 20:54:40 10° WSW 20:56:48 16° SSW 20:58:57 10° SSE visible
